STARLINK-36656

Last updated on Sun Mar 15 2026 00:02:07 GMT+0000 (Coordinated Universal Time)

1 67841U 26033W 26073.58335648 -.01940107 00000+0 -20368-1 0 9993 2 67841 42.9988 241.5871 0001369 274.9317 222.5371 15.66608403 5453
UTC large
Height (km)
Speed (km/s)
/
Latitude / Longitude
Inclination (degrees)
Orbital Period (minutes)
Azimuth
Elevation
Range (km)
Doppler Factor

Next 0 passes for location: London (51.5072 / 0.1276)

Sorry there are no passes over London.